QPF
0.06 0.06 0.06 0.06 0.06 0.06 0.06 0.07 0.08 0.08 0.07 0.07 0.07 0.07 0.06 0.05 0.06 0.06 0.05 0.06 0.06 0.05 0.04 0.04 0.04 0.04 0.04 0.03 0.03 0.03 0.03 0.04 0.05 0.05 0.05 0.04 0.03 0.03
0.04 0.04 0.05 0.06 0.07 0.07 0.07 0.07 0.07 0.08 0.07 0.05 0.05 0.05 0.05 0.05 0.05 0.04 0.04 0.05 0.05 0.04 0.04 0.03 0.03 0.03 0.03 0.04 0.03 0.03 0.03 0.03 0.05 0.05 0.05 0.05 0.03 0.03
0.02 0.02 0.03 0.04 0.05 0.07 0.07 0.08 0.08 0.08 0.07 0.05 0.04 0.04 0.04 0.04 0.04 0.04 0.03 0.03 0.04 0.05 0.05 0.05 0.06 0.06 0.05 0.05 0.04 0.04 0.04 0.04 0.05 0.05 0.06 0.06 0.05 0.03
0.02 0.02 0.02 0.02 0.03 0.04 0.05 0.05 0.05 0.06 0.06 0.06 0.05 0.04 0.04 0.04 0.04 0.03 0.03 0.04 0.04 0.05 0.05 0.05 0.05 0.05 0.04 0.04 0.03 0.03 0.03 0.04 0.04 0.05 0.06 0.07 0.07 0.05
0.04 0.04 0.03 0.04 0.04 0.04 0.04 0.04 0.03 0.04 0.04 0.04 0.04 0.04 0.04 0.03 0.03 0.03 0.03 0.03 0.03 0.03 0.03 0.03 0.04 0.04 0.03 0.03 0.03 0.03 0.03 0.03 0.04 0.05 0.05 0.06 0.06 0.05
0.05 0.05 0.03 0.03 0.03 0.03 0.02 0.02 0.02 0.02 0.03 0.03 0.03 0.03 0.03 0.03 0.03 0.03 0.03 0.02 0.02 0.02 0.03 0.03 0.04 0.04 0.03 0.02 0.02 0.03 0.04 0.04 0.04 0.05 0.04 0.05 0.05 0.05
0.04 0.04 0.03 0.02 0.01 0.01 0.01 0.01 0.02 0.02 0.02 0.02 0.02 0.02 0.02 0.02 0.02 0.02 0.03 0.02 0.02 0.02 0.03 0.03 0.05 0.04 0.03 0.02 0.02 0.03 0.04 0.04 0.04 0.04 0.03 0.04 0.04 0.04
0.04 0.03 0.03 0.02 0.01 0.02 0.02 0.02 0.02 0.02 0.02 0.02 0.02 0.02 0.02 0.02 0.02 0.02 0.03 0.03 0.03 0.03 0.04 0.04 0.04 0.03 0.03 0.02 0.03 0.03 0.03 0.04 0.04 0.03 0.02 0.02 0.03 0.03
0.02 0.02 0.02 0.02 0.02 0.01 0.02 0.02 0.02 0.01 0.02 0.02 0.02 0.02 0.02 0.02 0.03 0.03 0.04 0.04 0.04 0.04 0.04 0.05 0.04 0.03 0.03 0.02 0.03 0.02 0.03 0.03 0.03 0.03 0.03 0.03 0.03 0.03
0.01 0.01 0.01 0.01 0.01 0.01 0.01 0.01 0.01 0.01 0.01 0.01 0.01 0.02 0.02 0.02 0.03 0.03 0.04 0.04 0.03 0.03 0.03 0.03 0.03 0.02 0.02 0.02 0.02 0.02 0.02 0.02 0.03 0.03 0.03 0.03 0.03 0.03
0.01 0.01 0.01 0.01 0.01 0.01 0.01 0.01 0.01 0.01 0.01 0.01 0.01 0.02 0.02 0.02 0.02 0.02 0.03 0.03 0.02 0.02 0.03 0.03 0.02 0.02 0.02 0.02 0.02 0.02 0.02 0.03 0.03 0.03 0.03 0.03 0.03 0.03
0.01 0.01 0.01 0.02 0.02 0.02 0.02 0.02 0.02 0.02 0.01 0.01 0.01 0.01 0.01 0.01 0.01 0.01 0.02 0.03 0.02 0.02 0.02 0.03 0.02 0.02 0.02 0.02 0.02 0.02 0.03 0.04 0.04 0.03 0.03 0.03 0.03 0.04
0.01 0.01 0.02 0.02 0.02 0.02 0.02 0.03 0.03 0.02 0.02 0.01 0.01 0.01 0.01 0.01 0.01 0.01 0.01 0.02 0.02 0.02 0.02 0.03 0.03 0.03 0.03 0.03 0.02 0.02 0.03 0.04 0.05 0.04 0.04 0.04 0.04 0.04
0.01 0.01 0.01 0.02 0.01 0.02 0.02 0.02 0.03 0.03 0.02 0.02 0.02 0.02 0.02 0.02 0.02 0.01 0.01 0.01 0.01 0.01 0.02 0.02 0.04 0.03 0.04 0.04 0.02 0.02 0.02 0.03 0.04 0.05 0.04 0.04 0.04 0.04
0.00 0.00 0.01 0.01 0.01 0.01 0.01 0.01 0.02 0.02 0.02 0.03 0.03 0.03 0.02 0.02 0.01 0.01 0.01 0.01 0.01 0.01 0.01 0.01 0.02 0.03 0.04 0.04 0.03 0.02 0.02 0.02 0.03 0.05 0.05 0.04 0.03 0.03
0.00 0.00 0.00 0.00 0.00 0.00 0.00 0.00 0.01 0.01 0.02 0.02 0.02 0.02 0.02 0.02 0.02 0.02 0.02 0.02 0.02 0.02 0.01 0.01 0.01 0.02 0.02 0.02 0.02 0.02 0.02 0.03 0.04 0.04 0.05 0.05 0.03 0.02
0.00 0.00 0.00 0.00 0.00 0.00 0.00 0.00 0.00 0.00 0.01 0.01 0.01 0.02 0.02 0.01 0.01 0.01 0.02 0.02 0.02 0.02 0.02 0.01 0.01 0.01 0.01 0.02 0.02 0.02 0.02 0.02 0.03 0.04 0.05 0.06 0.04 0.03
0.00 0.00 0.00 0.00 0.00 0.00 0.00 0.00 0.00 0.00 0.01 0.01 0.01 0.01 0.01 0.01 0.01 0.01 0.02 0.02 0.02 0.01 0.01 0.01 0.01 0.02 0.01 0.01 0.01 0.02 0.02 0.02 0.03 0.04 0.05 0.06 0.05 0.04
0.00 0.00 0.00 0.00 0.00 0.00 0.00 0.01 0.01 0.01 0.01 0.01 0.01 0.01 0.01 0.01 0.01 0.01 0.02 0.02 0.01 0.01 0.01 0.01 0.02 0.02 0.02 0.01 0.01 0.01 0.02 0.03 0.04 0.05 0.05 0.05 0.05 0.04
0.00 0.00 0.00 0.00 0.00 0.00 0.00 0.01 0.01 0.00 0.01 0.01 0.01 0.01 0.01 0.01 0.01 0.01 0.01 0.01 0.02 0.01 0.01 0.01 0.01 0.03 0.04 0.03 0.02 0.01 0.02 0.04 0.05 0.05 0.04 0.04 0.04 0.04
0.00 0.00 0.00 0.00 0.00 0.00 0.00 0.00 0.01 0.01 0.01 0.01 0.01 0.01 0.01 0.01 0.01 0.01 0.01 0.01 0.01 0.01 0.01 0.01 0.01 0.01 0.02 0.03 0.02 0.02 0.02 0.03 0.04 0.05 0.05 0.05 0.05 0.05
0.00 0.00 0.00 0.00 0.00 0.00 0.00 0.01 0.00 0.00 0.00 0.01 0.01 0.01 0.01 0.01 0.01 0.01 0.01 0.02 0.02 0.02 0.01 0.01 0.01 0.01 0.01 0.02 0.02 0.02 0.03 0.03 0.03 0.04 0.05 0.06 0.07 0.07
0.00 0.00 0.00 0.00 0.00 0.00 0.00 0.00 0.00 0.00 0.00 0.01 0.01 0.01 0.01 0.01 0.01 0.01 0.01 0.01 0.01 0.01 0.01 0.01 0.01 0.01 0.01 0.02 0.03 0.03 0.03 0.03 0.03 0.04 0.04 0.04 0.05 0.06
MSLP
1006.79 1006.40 1006.08 1005.84 1005.69 1005.65 1005.74 1005.98 1006.37 1006.90 1007.55 1008.29 1009.08 1009.87 1010.61 1011.27 1011.82 1012.27 1012.61 1012.89 1013.10 1013.29 1013.48 1013.67 1013.85 1014.03 1014.17 1014.27 1014.31 1014.29 1014.20 1014.05 1013.88 1013.67 1013.46 1013.24 1013.03 1012.81
1006.85 1006.44 1006.10 1005.84 1005.69 1005.66 1005.77 1006.04 1006.47 1007.05 1007.76 1008.56 1009.42 1010.27 1011.08 1011.79 1012.38 1012.85 1013.20 1013.45 1013.63 1013.77 1013.89 1014.00 1014.12 1014.22 1014.30 1014.34 1014.33 1014.25 1014.12 1013.93 1013.71 1013.46 1013.20 1012.93 1012.67 1012.41
1007.34 1006.93 1006.59 1006.32 1006.16 1006.12 1006.22 1006.47 1006.89 1007.46 1008.17 1008.98 1009.84 1010.71 1011.52 1012.25 1012.85 1013.31 1013.65 1013.86 1014.00 1014.07 1014.12 1014.16 1014.19 1014.23 1014.25 1014.25 1014.20 1014.10 1013.95 1013.75 1013.51 1013.23 1012.95 1012.65 1012.36 1012.06
1008.21 1007.82 1007.49 1007.23 1007.06 1006.99 1007.05 1007.26 1007.62 1008.13 1008.78 1009.53 1010.34 1011.16 1011.94 1012.63 1013.20 1013.63 1013.93 1014.10 1014.17 1014.19 1014.16 1014.13 1014.10 1014.08 1014.05 1014.02 1013.96 1013.86 1013.72 1013.52 1013.29 1013.02 1012.73 1012.42 1012.10 1011.77
1009.32 1008.99 1008.69 1008.45 1008.27 1008.18 1008.19 1008.33 1008.61 1009.02 1009.56 1010.20 1010.91 1011.64 1012.33 1012.95 1013.46 1013.83 1014.07 1014.19 1014.20 1014.15 1014.06 1013.96 1013.88 1013.81 1013.75 1013.71 1013.65 1013.57 1013.45 1013.29 1013.09 1012.84 1012.56 1012.25 1011.92 1011.57
1010.51 1010.25 1010.01 1009.81 1009.64 1009.53 1009.49 1009.55 1009.72 1010.01 1010.42 1010.93 1011.51 1012.11 1012.70 1013.22 1013.64 1013.94 1014.12 1014.17 1014.13 1014.02 1013.87 1013.73 1013.60 1013.50 1013.42 1013.37 1013.33 1013.27 1013.19 1013.07 1012.90 1012.69 1012.43 1012.13 1011.79 1011.42
1011.59 1011.42 1011.26 1011.11 1010.97 1010.85 1010.78 1010.77 1010.85 1011.02 1011.30 1011.66 1012.10 1012.57 1013.04 1013.46 1013.79 1014.02 1014.13 1014.12 1014.03 1013.87 1013.68 1013.50 1013.34 1013.21 1013.13 1013.08 1013.05 1013.01 1012.95 1012.86 1012.72 1012.53 1012.29 1012.00 1011.66 1011.29
1012.44 1012.36 1012.28 1012.19 1012.09 1011.99 1011.90 1011.85 1011.85 1011.93 1012.09 1012.33 1012.65 1013.00 1013.35 1013.67 1013.92 1014.08 1014.13 1014.09 1013.95 1013.76 1013.55 1013.33 1013.15 1013.01 1012.91 1012.86 1012.83 1012.80 1012.75 1012.67 1012.54 1012.36 1012.13 1011.84 1011.50 1011.12
1012.98 1012.98 1012.98 1012.96 1012.91 1012.84 1012.76 1012.69 1012.65 1012.66 1012.74 1012.89 1013.11 1013.37 1013.63 1013.88 1014.06 1014.17 1014.18 1014.10 1013.94 1013.73 1013.49 1013.27 1013.07 1012.91 1012.81 1012.73 1012.69 1012.65 1012.58 1012.49 1012.35 1012.15 1011.90 1011.60 1011.25 1010.87
1013.22 1013.29 1013.36 1013.40 1013.41 1013.38 1013.33 1013.26 1013.21 1013.20 1013.24 1013.33 1013.49 1013.68 1013.89 1014.08 1014.21 1014.28 1014.26 1014.17 1013.99 1013.77 1013.53 1013.30 1013.09 1012.92 1012.80 1012.70 1012.62 1012.54 1012.44 1012.31 1012.12 1011.89 1011.61 1011.28 1010.92 1010.53
1013.25 1013.37 1013.49 1013.59 1013.65 1013.67 1013.65 1013.61 1013.58 1013.57 1013.59 1013.67 1013.80 1013.96 1014.13 1014.28 1014.38 1014.42 1014.39 1014.28 1014.10 1013.88 1013.64 1013.41 1013.19 1013.01 1012.86 1012.73 1012.61 1012.48 1012.32 1012.12 1011.88 1011.59 1011.26 1010.89 1010.51 1010.12
1013.17 1013.32 1013.48 1013.62 1013.73 1013.79 1013.82 1013.82 1013.81 1013.83 1013.87 1013.95 1014.07 1014.22 1014.36 1014.49 1014.57 1014.59 1014.54 1014.42 1014.24 1014.02 1013.78 1013.55 1013.33 1013.14 1012.97 1012.80 1012.64 1012.44 1012.21 1011.94 1011.62 1011.27 1010.88 1010.48 1010.07 1009.66
1013.08 1013.26 1013.45 1013.62 1013.76 1013.86 1013.93 1013.97 1014.00 1014.05 1014.12 1014.22 1014.34 1014.48 1014.61 1014.72 1014.78 1014.77 1014.70 1014.57 1014.38 1014.16 1013.93 1013.70 1013.48 1013.28 1013.08 1012.89 1012.67 1012.42 1012.12 1011.77 1011.38 1010.95 1010.51 1010.06 1009.63 1009.21
1013.03 1013.24 1013.45 1013.65 1013.81 1013.94 1014.04 1014.12 1014.19 1014.27 1014.37 1014.49 1014.62 1014.76 1014.88 1014.96 1014.99 1014.96 1014.87 1014.71 1014.51 1014.29 1014.05 1013.82 1013.60 1013.39 1013.18 1012.95 1012.69 1012.38 1012.02 1011.61 1011.15 1010.66 1010.17 1009.68 1009.22 1008.79
1013.03 1013.26 1013.49 1013.71 1013.89 1014.04 1014.17 1014.28 1014.39 1014.51 1014.63 1014.77 1014.91 1015.05 1015.15 1015.21 1015.21 1015.14 1015.02 1014.84 1014.62 1014.38 1014.14 1013.90 1013.68 1013.46 1013.23 1012.98 1012.68 1012.33 1011.92 1011.45 1010.94 1010.40 1009.86 1009.34 1008.85 1008.40
1013.01 1013.28 1013.53 1013.76 1013.97 1014.14 1014.29 1014.44 1014.58 1014.72 1014.87 1015.03 1015.18 1015.30 1015.39 1015.42 1015.39 1015.30 1015.14 1014.93 1014.69 1014.44 1014.18 1013.94 1013.71 1013.48 1013.23 1012.96 1012.63 1012.25 1011.79 1011.28 1010.72 1010.14 1009.57 1009.02 1008.51 1008.04
1012.89 1013.20 1013.49 1013.74 1013.97 1014.16 1014.34 1014.51 1014.68 1014.86 1015.03 1015.21 1015.37 1015.49 1015.57 1015.58 1015.53 1015.40 1015.22 1014.99 1014.73 1014.45 1014.19 1013.93 1013.69 1013.44 1013.18 1012.88 1012.52 1012.10 1011.62 1011.07 1010.49 1009.88 1009.28 1008.70 1008.16 1007.67
1012.61 1012.96 1013.28 1013.56 1013.81 1014.03 1014.24 1014.44 1014.65 1014.85 1015.06 1015.26 1015.43 1015.57 1015.64 1015.65 1015.58 1015.45 1015.24 1015.00 1014.72 1014.43 1014.15 1013.88 1013.61 1013.35 1013.06 1012.73 1012.35 1011.90 1011.39 1010.81 1010.20 1009.57 1008.95 1008.35 1007.79 1007.26
1012.13 1012.52 1012.87 1013.19 1013.47 1013.72 1013.96 1014.20 1014.43 1014.68 1014.92 1015.15 1015.35 1015.50 1015.59 1015.61 1015.55 1015.41 1015.21 1014.96 1014.68 1014.38 1014.09 1013.79 1013.51 1013.21 1012.89 1012.54 1012.12 1011.64 1011.10 1010.50 1009.87 1009.22 1008.58 1007.96 1007.38 1006.82
1011.47 1011.89 1012.28 1012.63 1012.94 1013.22 1013.50 1013.77 1014.05 1014.33 1014.61 1014.88 1015.12 1015.31 1015.43 1015.47 1015.43 1015.31 1015.12 1014.88 1014.60 1014.30 1013.99 1013.69 1013.37 1013.05 1012.69 1012.30 1011.85 1011.33 1010.76 1010.14 1009.49 1008.83 1008.18 1007.55 1006.94 1006.36
1010.69 1011.14 1011.55 1011.93 1012.27 1012.59 1012.91 1013.22 1013.54 1013.86 1014.19 1014.50 1014.77 1015.00 1015.16 1015.24 1015.24 1015.15 1014.99 1014.76 1014.49 1014.20 1013.88 1013.56 1013.22 1012.86 1012.47 1012.04 1011.55 1011.01 1010.41 1009.78 1009.12 1008.45 1007.79 1007.15 1006.53 1005.93
1009.86 1010.34 1010.78 1011.18 1011.55 1011.91 1012.25 1012.60 1012.96 1013.33 1013.69 1014.04 1014.37 1014.63 1014.84 1014.96 1014.99 1014.94 1014.81 1014.62 1014.37 1014.08 1013.76 1013.42 1013.05 1012.67 1012.24 1011.78 1011.26 1010.70 1010.09 1009.44 1008.78 1008.11 1007.45 1006.82 1006.20 1005.59
1009.09 1009.57 1010.03 1010.46 1010.86 1011.24 1011.62 1012.00 1012.39 1012.79 1013.19 1013.58 1013.94 1014.25 1014.49 1014.65 1014.73 1014.71 1014.61 1014.45 1014.21 1013.93 1013.61 1013.26 1012.88 1012.47 1012.02 1011.53 1011.00 1010.42 1009.81 1009.17 1008.52 1007.87 1007.23 1006.61 1006.00 1005.41
Thickness
5557 5557 5557 5557 5556 5556 5557 5557 5558 5562 5564 5562 5559 5558 5556 5556 5556 5556 5557 5557 5556 5556 5556 5556 5556 5555 5555 5555 5555 5555 5554 5553 5554 5555 5556 5556 5556 5556
5547 5547 5546 5546 5545 5545 5545 5546 5546 5547 5550 5550 5548 5547 5545 5545 5544 5544 5545 5545 5545 5545 5545 5545 5545 5544 5544 5544 5544 5544 5543 5543 5543 5544 5545 5545 5546 5546
5538 5537 5536 5536 5535 5535 5534 5534 5534 5534 5535 5536 5535 5534 5534 5534 5534 5533 5534 5534 5535 5535 5535 5535 5534 5534 5533 5533 5533 5532 5532 5532 5532 5533 5534 5535 5535 5536
5528 5527 5526 5525 5525 5525 5524 5524 5524 5524 5523 5524 5523 5522 5522 5522 5522 5523 5523 5523 5524 5525 5524 5524 5523 5523 5522 5522 5522 5522 5522 5522 5522 5522 5523 5524 5525 5525
5518 5517 5517 5516 5515 5515 5514 5514 5514 5513 5512 5511 5511 5510 5510 5510 5510 5511 5512 5512 5513 5513 5513 5513 5512 5511 5510 5510 5511 5511 5511 5511 5511 5512 5512 5513 5514 5514
5509 5508 5507 5506 5505 5504 5504 5503 5503 5502 5501 5500 5500 5499 5498 5497 5497 5499 5500 5501 5501 5500 5500 5500 5499 5498 5498 5498 5499 5500 5499 5499 5499 5500 5501 5501 5502 5502
5500 5499 5497 5495 5494 5493 5493 5492 5492 5491 5490 5489 5488 5487 5486 5485 5484 5484 5485 5486 5487 5487 5487 5487 5487 5487 5487 5487 5487 5487 5486 5486 5487 5488 5489 5490 5490 5491
5492 5491 5489 5486 5484 5482 5480 5479 5478 5478 5477 5476 5475 5475 5474 5473 5471 5470 5470 5471 5474 5474 5472 5473 5472 5474 5474 5475 5475 5474 5474 5474 5474 5475 5476 5477 5477 5479
5484 5482 5479 5476 5474 5472 5470 5468 5466 5463 5461 5461 5461 5461 5460 5458 5457 5457 5456 5455 5457 5456 5455 5460 5460 5461 5461 5462 5461 5461 5461 5461 5461 5462 5463 5464 5465 5466
5474 5472 5470 5467 5464 5462 5460 5458 5456 5453 5451 5449 5448 5447 5444 5443 5442 5441 5440 5440 5441 5441 5440 5443 5446 5447 5448 5448 5448 5447 5447 5447 5447 5448 5450 5451 5452 5454
5465 5462 5460 5457 5454 5451 5449 5448 5445 5442 5438 5436 5434 5432 5430 5428 5427 5427 5426 5426 5429 5429 5426 5426 5430 5431 5433 5434 5434 5433 5433 5433 5434 5435 5437 5438 5440 5442
5456 5453 5449 5447 5443 5440 5439 5437 5434 5431 5428 5425 5422 5420 5417 5415 5413 5411 5410 5410 5410 5412 5413 5410 5411 5410 5416 5420 5418 5418 5418 5419 5421 5422 5424 5425 5427 5429
5447 5444 5440 5436 5432 5429 5427 5425 5422 5418 5415 5412 5410 5407 5405 5402 5399 5397 5395 5393 5393 5394 5394 5391 5392 5392 5392 5399 5402 5402 5403 5405 5407 5410 5411 5413 5414 5416
5439 5435 5430 5426 5422 5419 5416 5413 5409 5406 5404 5401 5398 5395 5392 5389 5385 5382 5380 5378 5377 5377 5377 5375 5375 5376 5377 5380 5386 5389 5389 5390 5393 5396 5398 5400 5402 5404
5430 5425 5421 5417 5413 5409 5405 5401 5398 5395 5392 5389 5386 5382 5378 5375 5372 5370 5369 5367 5366 5365 5364 5363 5362 5362 5362 5365 5369 5373 5375 5378 5380 5383 5385 5387 5390 5392
5420 5416 5411 5407 5403 5399 5395 5391 5387 5384 5380 5377 5374 5370 5366 5364 5361 5359 5357 5356 5356 5356 5353 5351 5350 5350 5352 5354 5355 5359 5361 5363 5367 5369 5372 5376 5379 5381
5411 5407 5403 5399 5395 5390 5386 5381 5377 5373 5369 5365 5361 5358 5355 5353 5350 5347 5345 5344 5344 5344 5344 5343 5341 5340 5341 5343 5345 5349 5351 5353 5356 5358 5361 5366 5370 5373
5402 5399 5395 5390 5385 5381 5376 5372 5367 5363 5359 5354 5351 5348 5344 5342 5340 5337 5335 5334 5333 5333 5332 5332 5331 5333 5336 5337 5336 5338 5341 5343 5346 5348 5350 5354 5361 5365
5394 5391 5386 5381 5376 5371 5367 5362 5358 5354 5349 5345 5341 5338 5334 5331 5329 5328 5326 5324 5323 5323 5322 5321 5321 5322 5325 5330 5332 5329 5330 5333 5336 5339 5342 5345 5350 5356
5387 5383 5378 5373 5368 5363 5359 5354 5349 5345 5341 5336 5332 5329 5325 5322 5320 5319 5317 5315 5314 5314 5313 5313 5312 5311 5312 5315 5318 5321 5321 5324 5328 5332 5335 5338 5342 5347
5379 5375 5370 5365 5360 5355 5351 5346 5341 5337 5333 5328 5324 5320 5317 5314 5312 5310 5308 5306 5305 5305 5305 5306 5304 5303 5303 5305 5309 5315 5318 5319 5320 5323 5327 5331 5336 5342
5372 5367 5362 5357 5352 5348 5343 5338 5334 5330 5325 5321 5317 5314 5310 5307 5305 5303 5301 5300 5298 5297 5297 5298 5298 5298 5299 5300 5303 5307 5311 5314 5317 5319 5321 5323 5326 5333
5365 5360 5355 5350 5345 5340 5335 5331 5326 5323 5318 5314 5310 5307 5303 5300 5298 5296 5294 5293 5292 5291 5291 5292 5293 5293 5294 5296 5298 5301 5304 5308 5312 5315 5318 5320 5321 5324